Regional Weather Roundup
Issued by NWS Mobile, AL

Home | Current Version | Previous Version | Text Only | Print | Product List | Glossary On
Versions: 1 2 3 4 5 6 7 8 9 10 11 12 13 14 15 16 17 18 19 20 21 22 23 24 25 26 27 28 29 30 31 32 33 34 35 36 37 38 39 40 41 42 43 44 45 46 47 48 49 50
000
ASUS44 KMOB 041512
RWRMOB
REGIONAL WEATHER ROUNDUP
NATIONAL WEATHER SERVICE MOBILE AL
900 AM CST SUN DEC 04 2016

NOTE: "FAIR" INDICATES FEW OR NO CLOUDS BELOW 12,000 FEET WITH NO
      SIGNIFICANT WEATHER AND/OR OBSTRUCTIONS TO VISIBILITY.

  * THESE STATIONS ARE PART OF THE UNIVERSITY OF SOUTH ALABAMA
    MESONET AND ARE NOT UNDER NWS OR FAA QUALITY CONTROL.

ALZ061>064-041600-
COASTAL ALABAMA

CITY           SKY/WX    TMP DP  RH WIND       PRES   REMARKS
MOBILE REG APT HVY RAIN  66  65  96 SE13      29.95S FOG
BROOKLEY FIELD LGT RAIN  70  69  97 CALM      29.96S FOG
USA CAMPUS*    NOT AVBL
DOG RIVER*       N/A     66  66 100 CALM      30.68R


CITY           SKY/WX    TMP DP  RH WIND       PRES   REMARKS
GULF SHORES    CLOUDY    72  71  98 S18G28    29.93R

$$

ALZ051>060-041600-
INTERIOR SOUTHWEST AND SOUTH CENTRAL ALABAMA

CITY           SKY/WX    TMP DP  RH WIND       PRES   REMARKS
GREENVILLE     LGT RAIN  58  54  86 SE5       30.02R
EVERGREEN      RAIN      58  56  93 E6        29.99S FOG
ATMORE*          N/A    N/A N/A N/A SE13      29.98S
ANDALUSIA/OPP  LGT RAIN  61  55  81 E7        30.02R
ANDALUSIA*       N/A     57  55  94 E7        30.00S
FLORALA APT    LGT RAIN  59  53  80 VRB3      30.03S
FLORALA*         N/A     59  55  88 NE6       30.73S

$$

FLZ001>006-041600-
WESTERN FLORIDA PANHANDLE

CITY           SKY/WX    TMP DP  RH WIND       PRES   REMARKS
PENSACOLA      CLOUDY    67  64  90 E9        29.96S
NAS PENSACOLA  CLOUDY    73  69  87 SE17      29.94S THUNDER FOG
MILTON         LGT RAIN  61  60  97 E8        29.98S
WHTNG S FIELD  CLOUDY    66  62  87 SE10      29.98S


CITY           SKY/WX    TMP DP  RH WIND       PRES   REMARKS
JAY*             N/A     59  57  94 E14       29.98S
DUKE FIELD     LGT RAIN  62  59  90 SE9       29.99R
CRESTVIEW      LGT RAIN  63  59  87 SE7       30.02R FOG
VALPARAISO     CLOUDY    64  61  88 E12       29.99S
DESTIN         CLOUDY    68  63  84 SE15      29.99R

$$

MSZ076-079-041600-
INTERIOR SOUTHEAST MISSISSIPPI

CITY           SKY/WX    TMP DP  RH WIND       PRES   REMARKS
LEAKESVILLE*   NOT AVBL
AGRICOLA*      NOT AVBL

$$

MARINE OBSERVATIONS

STATION/POSITION TIME  TEMP    WIND        PRES    WAVE
                       AIR SEA DIR/SP/G            HT/PER
                 (UTC) (F)     (DEG/KT/KT) (MB)    (FT/S)
PASCAGOULA       1448   67     190/  5/  7 1013.8R
PETIT BOIS ISLND 1448   66     220/  9/ 11 1014.7R
GRAND BAY        1345   68     330/  6     1014.0R
KATRINA CUT      1430   66     310/ 14     1013.9R
CEDAR POINT      1430   67     300/  8     1013.5R
E DAUPHIN ISLAND 1400   68     300/  3/  5 1013.0R
MIDDLE BAY LIGHT 1430          320/ 13     1013.2S
USCG MOBILE BAY  1448   68 61  230/  1/  2 1014.4F
STATE DOCKS      1448   63                 1013.7S
MEAHER PARK      1430   64        CALM     1013.9R
WEEKS BAY        1345   70                   N/A
FORT MORGAN      1448   67     270/ 16/ 17 1013.6R
12 S ORANGE BCH  1450   74 69  160/ 19/ 23 1013.4R   8/ 7
PENSACOLA BAY    1448   72 62  160/ 11/ 14 1014.4R
64 S DAUPHIN ISL 1450   77 76  180/ 16/ 21 1013.6R   8/ 8
67 S FORT MORGAN 1430   75     160/ 21     1014.2R

$$

SELECTED LOCATIONS ACROSS THE REGION

CITY           SKY/WX    TMP DP  RH WIND       PRES   REMARKS
NEW ORLEANS    CLOUDY    63  63 100 NW8       29.93R
GULFPORT       LGT RAIN  65  65 100 SE8       29.92R
PASCAGOULA AP  LGT RAIN  65  63  93 CALM      29.94S FOG
PASCAGOULA*    NOT AVBL
HATTIESBURG    CLOUDY    57  55  93 NW6       29.96R
LAUREL         CLOUDY    54  52  94 NE6       29.96S
MERIDIAN       CLOUDY    51  47  86 E3        29.96F
JACKSON        CLOUDY    51  48  89 SE7       29.92F
MONTGOMERY     LGT RAIN  53  48  83 E13       30.03S
TROY           LGT RAIN  57  55  93 E6        30.05R
ASHFORD*         N/A     57  55  94 E7        30.00S
DOTHAN         CLOUDY    59  54  83 SE10      30.09R
PANAMA CITY    CLOUDY    66  58  75 E9        30.03R

$$




USA.gov is the U.S. government's official web portal to all federal, state and local government web resources and services.